Вернуться в каталог

COSMOS 886 DEB

АктивенLEO
NORAD 9656·DEBRIS·🇷🇺 Russia

Запущен Dec 27, 1976 с Baikonur Cosmodrome

Loading…

Ближайшие Пролёты (ближайшие 24 часа)

TLE

СвежийSource: Space-Track

Эпоха: Sep 13, 2026, 04:12 UTC

1 09656U 76126N   26256.17510901  .00000342  00000-0  28676-3 0  9994
2 09656  65.8195 289.2349 0855209  38.8673 327.0769 12.91042777293573

Отслеживайте COSMOS 886 DEB в реальном времени с AllMySat

Download on the App Store